F4DOU-5 Weather Reports


time (UTC)temp
C
wind
direction
speed
KPH
gust
KPH
rain 1hr
cm
rain 24hr
cm
rain mn
cm
humidity
%
barometer
mb
20260506155005 20 176 8.0 16.1 0.00 0.53 0.48 56 1009.5
20260506154006 20 183 11.3 19.3 0.00 0.53 0.48 57 1009.6
20260506153006 20 190 8.0 19.3 0.00 0.53 0.48 57 1009.6
20260506152006 20 164 9.7 19.3 0.00 0.53 0.48 57 1009.5
20260506150006 18 131 1.6 8.0 0.00 0.53 0.48 63 1009.7
20260506145006 18 84 3.2 9.7 0.00 0.53 0.48 63 1009.7
20260506143006 18 37 9.7 19.3 0.00 0.53 0.48 62 1009.9
20260506142006 19 14 8.0 14.5 0.00 0.53 0.48 63 1009.9
20260506141006 19 68 8.0 19.3 0.00 0.53 0.48 63 1010.0
20260506140006 19 107 6.4 19.3 0.00 0.53 0.48 63 1010.1
20260506135006 20 137 4.8 12.9 0.00 0.53 0.48 59 1010.1
20260506134007 20 187 4.8 11.3 0.00 0.53 0.48 59 1010.1
20260506132006 19 142 6.4 16.1 0.00 0.53 0.48 63 1010.2
20260506131006 19 103 1.6 9.7 0.03 0.53 0.48 63 1010.2
20260506130007 18 17 1.6 9.7 0.03 0.53 0.48 65 1010.2
20260506125006 17 262 3.2 9.7 0.03 0.53 0.48 65 1010.2
20260506124006 16 61 3.2 9.7 0.03 0.53 0.48 78 1010.3
20260506123006 16 24 4.8 14.5 0.03 0.53 0.48 82 1010.4
20260506122008 16 5 8.0 19.3 0.03 0.53 0.48 79 1010.5
20260506121006 17 337 8.0 19.3 0.00 0.51 0.46 72 1010.4
20260506120006 18 323 14.5 24.1 0.00 0.51 0.46 68 1010.4
20260506115006 20 244 3.2 9.7 0.00 0.51 0.46 57 1010.2
20260506114005 18 242 8.0 14.5 0.00 0.51 0.46 61 1010.2
20260506113006 18 139 4.8 11.3 0.00 0.51 0.46 62 1010.2
20260506112006 19 117 4.8 12.9 0.00 0.51 0.46 60 1010.3
20260506110005 19 332 1.6 8.0 0.00 0.51 0.46 60 1010.5
20260506104006 18 74 4.8 11.3 0.00 0.51 0.46 62 1010.8
20260506103006 18 92 3.2 8.0 0.00 0.51 0.46 64 1010.9
20260506102006 18 141 3.2 8.0 0.00 0.51 0.46 61 1011.0
20260506101005 18 170 1.6 4.8 0.00 0.51 0.46 64 1011.0
20260506100005 17 222 1.6 4.8 0.00 0.51 0.46 65 1011.0
20260506095006 17 10 1.6 8.0 0.00 0.51 0.46 67 1011.0
20260506094005 17 326 3.2 8.0 0.00 0.51 0.46 66 1011.0
20260506092005 17 334 0.0 3.2 0.00 0.51 0.46 69 1010.9
20260506091005 17 331 1.6 4.8 0.00 0.51 0.46 68 1010.8
20260506085006 17 139 3.2 9.7 0.00 0.51 0.46 68 1010.8
20260506084005 17 160 3.2 8.0 0.00 0.51 0.46 68 1010.7
20260506083005 17 247 3.2 8.0 0.00 0.51 0.46 70 1010.6
20260506082005 16 252 1.6 9.7 0.00 0.51 0.46 74 1010.6
20260506081006 16 218 3.2 9.7 0.00 0.51 0.46 74 1010.6
20260506073005 15 163 1.6 8.0 0.00 0.51 0.46 84 1010.5
20260506071005 13 192 3.2 11.3 0.00 0.51 0.46 88 1010.3
20260506062005 12 191 1.6 4.8 0.00 0.51 0.46 96 1009.8
20260506061006 11 197 1.6 4.8 0.00 0.51 0.46 95 1009.7
20260506051005 10 230 0.0 3.2 0.00 0.89 0.46 95 1009.3
20260506045005 10 230 0.0 1.6 0.00 0.99 0.46 95 1009.1
20260506044005 10 230 0.0 1.6 0.00 0.99 0.46 95 1009.1
20260506043005 10 232 0.0 3.2 0.00 0.99 0.46 95 1009.0
20260506041005 10 182 0.0 1.6 0.00 0.99 0.46 94 1009.2
20260506035005 10 180 0.0 4.8 0.00 0.99 0.46 94 1009.2
20260506033005 11 219 0.0 4.8 0.00 0.99 0.46 94 1009.0
20260506032005 11 306 1.6 4.8 0.00 0.99 0.46 93 1008.8
20260506030005 11 337 3.2 8.0 0.00 0.99 0.46 94 1008.4
20260506025005 11 343 1.6 4.8 0.00 0.99 0.46 94 1008.4
20260506023005 11 267 3.2 9.7 0.00 0.99 0.46 94 1008.5
20260506022005 11 324 3.2 14.5 0.00 1.02 0.46 94 1008.3
20260506015005 11 269 3.2 19.3 0.00 1.04 0.46 94 1008.5
20260506014005 11 268 9.7 19.3 0.03 1.04 0.46 94 1008.6
20260506013005 11 264 4.8 16.1 0.03 1.04 0.46 93 1008.7
20260506010005 11 30 4.8 8.0 0.03 1.07 0.46 93 1008.2
20260506004004 12 348 3.2 11.3 0.03 1.04 0.43 93 1008.7
20260506003005 12 342 8.0 19.3 0.03 1.07 0.43 94 1008.9
20260506002005 12 329 8.0 16.1 0.05 1.09 0.43 94 1009.0
20260506001005 12 301 3.2 8.0 0.08 1.17 0.43 94 1009.3
20260505235005 12 293 4.8 12.9 0.13 1.27 0.43 94 1009.6
20260505234005 12 262 1.6 4.8 0.20 1.32 0.43 93 1009.8
20260505232005 12 293 4.8 12.9 0.33 1.35 0.41 93 1010.0
20260505231005 12 257 4.8 19.3 0.36 1.30 0.36 93 1010.2
20260505230005 13 255 8.0 19.3 0.33 1.30 0.33 92 1010.1
20260505224005 13 319 0.0 3.2 0.25 1.30 0.23 92 1010.3
20260505223005 14 319 1.6 3.2 0.20 1.24 0.15 92 1010.3
20260505222005 14 319 0.0 3.2 0.13 1.27 0.05 91 1010.3
20260505221008 14 319 0.0 1.6 0.05 1.27 0.00 91 1010.3
20260505214005 15 319 0.0 4.8 0.03 1.45 1.27 88 1010.5
20260505212005 15 205 0.0 3.2 0.00 1.45 1.27 88 1010.8
20260505205005 15 210 0.0 4.8 0.00 1.70 1.27 86 1011.0
20260505204005 15 208 1.6 4.8 0.00 1.83 1.27 86 1011.1
20260505203005 15 186 0.0 3.2 0.00 2.06 1.27 86 1011.1
20260505202005 15 258 0.0 1.6 0.00 2.11 1.27 85 1011.0
20260505201005 15 262 0.0 3.2 0.00 2.24 1.27 84 1010.9
20260505195005 15 215 1.6 8.0 0.00 2.49 1.27 83 1010.9
20260505193005 16 201 1.6 4.8 0.00 2.84 1.27 83 1010.6
20260505192004 16 187 0.0 4.8 0.00 2.92 1.27 82 1010.6
20260505190005 16 224 1.6 4.8 0.00 3.05 1.27 81 1010.6
20260505185005 16 236 0.0 4.8 0.00 3.07 1.27 80 1010.5
20260505184005 16 219 1.6 8.0 0.00 3.07 1.27 79 1010.3
20260505183005 16 210 4.8 9.7 0.00 3.07 1.27 79 1010.3
20260505181005 16 211 3.2 12.9 0.00 3.07 1.27 77 1010.3
20260505180005 17 217 8.0 16.1 0.00 3.07 1.27 76 1010.2
20260505175005 17 207 8.0 19.3 0.00 3.10 1.27 75 1010.1
20260505174005 17 211 9.7 19.3 0.00 3.10 1.27 74 1010.1
20260505173005 17 210 9.7 19.3 0.00 3.15 1.27 74 1010.0
20260505172006 17 209 9.7 22.5 0.00 3.15 1.27 72 1009.9
20260505171005 17 204 11.3 19.3 0.00 3.17 1.27 70 1009.9
20260505170005 18 207 9.7 24.1 0.00 3.17 1.27 70 1009.9
20260505165005 18 199 11.3 29.0 0.00 3.17 1.27 69 1010.0
20260505164008 18 187 16.1 32.2 0.00 3.17 1.27 69 1010.0
20260505162005 18 191 11.3 27.4 0.00 3.20 1.27 66 1010.1
20260505161005 18 210 11.3 37.0 0.00 3.20 1.27 66 1010.1